EW0600 Weather Reports


Display with metric or nautical units.
time (UTC)temp
F
wind
direction
speed
MPH
gust
MPH
rain 1hr
in
rain 24hr
in
rain mn
in
humidity
%
barometer
mb
20260904124903 73 335 2.0 5.0 0.00 0.42 0.00 93 1005.9
20260904124608 72 336 3.0 6.0 0.00 0.43 0.00 93 1005.9
20260904123857 73 341 2.0 5.0 0.00 0.42 0.00 93 1005.8
20260904123007 72 338 3.0 4.0 0.00 0.43 0.00 93 1005.6
20260904122827 73 330 0.0 2.0 0.00 0.42 0.00 93 1005.6
20260904121800 73 262 0.0 0.0 0.00 0.42 0.00 93 1005.5
20260904121603 73 262 0.0 0.0 0.00 0.43 0.00 93 1005.5
20260904120818 73 262 0.0 0.0 0.00 0.42 0.00 94 1005.3
20260904120002 72 262 0.0 1.0 0.00 0.57 0.00 94 1005.4
20260904115827 72 262 0.0 0.0 0.00 0.42 0.00 94 1005.3
20260904114850 73 236 1.0 3.0 0.00 0.42 0.00 94 1005.1
20260904114604 72 205 1.0 4.0 0.00 0.57 0.00 94 1005.1
20260904113900 72 209 2.0 3.0 0.00 0.42 0.00 95 1005.0
20260904113002 72 200 3.0 4.0 0.00 0.57 0.00 95 1005.0
20260904111752 72 155 1.0 3.0 0.00 0.51 0.00 95 1005.1
20260904111602 72 186 0.0 4.0 0.00 0.57 0.00 95 1005.1
20260904110813 72 203 1.0 3.0 0.00 0.58 0.00 95 1005.0
20260904110003 72 174 0.0 2.0 0.00 0.57 0.00 95 1005.1
20260904105755 72 173 0.0 1.0 0.00 0.58 0.00 96 1005.1
20260904104606 72 139 0.0 0.0 0.00 0.57 0.00 97 1005.1
20260904103633 72 139 0.0 0.0 0.00 0.58 0.00 96 1005.1
20260904103003 72 139 0.0 0.0 0.00 0.57 0.00 97 1005.1
20260904102638 72 139 0.0 0.0 0.00 0.58 0.00 97 1005.0
20260904101620 72 139 0.0 0.0 0.00 0.58 0.00 96 1005.0
20260904101610 71 139 0.0 0.0 0.00 0.57 0.00 96 1005.1
20260904100629 72 139 0.0 0.0 0.00 0.58 0.00 96 1004.9
20260904100003 72 139 0.0 0.0 0.00 0.57 0.00 96 1004.9
20260904095641 72 139 0.0 0.0 0.00 0.58 0.00 96 1004.9
20260904094608 72 139 0.0 0.0 0.00 0.58 0.00 96 1004.9
20260904094603 72 139 0.0 0.0 0.00 0.57 0.00 96 1005.0
20260904093614 72 139 0.0 0.0 0.00 0.58 0.00 96 1004.8
20260904093003 72 139 0.0 0.0 0.00 0.57 0.00 96 1004.8
20260904092620 72 139 0.0 0.0 0.00 0.58 0.00 96 1004.7
20260904091620 73 139 0.0 0.0 0.00 0.58 0.00 96 1004.6
20260904091602 72 139 0.0 0.0 0.00 0.57 0.00 96 1004.6
20260904090002 73 139 0.0 1.0 0.00 0.57 0.00 95 1004.5
20260904085509 73 139 0.0 0.0 0.00 0.58 0.00 95 1004.5
20260904084603 73 139 0.0 0.0 0.00 0.57 0.00 94 1004.5
20260904083346 74 139 0.0 0.0 0.00 0.58 0.00 94 1004.3
20260904083004 74 139 0.0 0.0 0.00 0.57 0.00 94 1004.4
20260904082345 74 139 0.0 0.0 0.00 0.58 0.00 94 1004.3
20260904081603 74 139 0.0 0.0 0.00 0.57 0.00 94 1004.3
20260904080237 75 139 0.0 0.0 0.00 0.58 0.00 94 1004.2
20260904080002 74 139 0.0 0.0 0.00 0.57 0.00 93 1004.3
20260904075247 75 139 0.0 0.0 0.00 0.58 0.00 93 1004.2
20260904074602 74 139 0.0 2.0 0.00 0.57 0.00 93 1004.3
20260904074233 75 139 0.0 0.0 0.00 0.58 0.00 93 1004.2
20260904073004 75 157 1.0 3.0 0.00 0.57 0.00 93 1004.2
20260904072127 75 160 0.0 3.0 0.00 0.58 0.00 93 1004.2
20260904071602 75 162 0.0 3.0 0.00 0.57 0.00 93 1004.3
20260904071142 76 144 0.0 3.0 0.00 0.58 0.00 93 1004.3
20260904070107 76 172 1.0 3.0 0.00 0.58 0.00 93 1004.3
20260904070005 75 154 1.0 4.0 0.00 0.57 0.00 93 1004.4
20260904065032 76 142 1.0 3.0 0.00 0.58 0.00 92 1004.3
20260904064602 75 174 1.0 4.0 0.00 0.57 0.00 92 1004.3
20260904064047 76 160 1.0 4.0 0.00 0.58 0.00 92 1004.3
20260904063002 76 159 2.0 5.0 0.00 0.57 0.00 92 1004.4
20260904061603 76 156 1.0 6.0 0.00 0.57 0.00 92 1004.4
20260904060103 76 144 3.0 6.0 0.00 0.57 0.00 91 1004.4
20260904054507 77 145 3.0 6.0 0.00 0.57 0.00 91 1004.4
20260904054502 77 146 2.0 4.0 0.00 0.58 0.00 91 1004.4
20260904053105 77 127 2.0 6.0 0.00 0.57 0.00 90 1004.4
20260904051503 77 127 3.0 6.0 0.00 0.57 0.00 90 1004.4
20260904051201 78 143 2.0 6.0 0.00 0.58 0.00 90 1004.2
20260904050200 78 158 3.0 6.0 0.00 0.58 0.00 90 1004.2
20260904050108 77 74 3.0 7.0 0.00 0.57 0.00 90 1004.3
20260904045153 78 122 2.0 3.0 0.00 0.58 0.58 90 1004.2
20260904044505 77 134 2.0 4.0 0.00 0.57 0.57 90 1004.4
20260904044204 78 136 1.0 3.0 0.00 0.58 0.58 90 1004.3
20260904043110 77 141 1.0 3.0 0.00 0.57 0.57 90 1004.3
20260904042035 78 158 0.0 1.0 0.00 0.58 0.58 89 1004.2
20260904041503 78 158 0.0 4.0 0.00 0.57 0.57 89 1004.2
20260904041021 78 158 0.0 4.0 0.00 0.58 0.58 89 1004.2
20260904040103 78 136 1.0 5.0 0.00 0.57 0.57 88 1004.3
20260904040022 79 136 1.0 4.0 0.00 0.58 0.58 88 1004.2
20260904035031 79 145 2.0 5.0 0.00 0.58 0.58 88 1004.1
20260904034502 78 212 3.0 6.0 0.00 0.57 0.57 88 1004.2
20260904034043 79 148 2.0 5.0 0.00 0.58 0.58 87 1004.2
20260904033102 78 176 2.0 6.0 0.00 0.57 0.57 87 1004.3
20260904033030 79 138 2.0 5.0 0.00 0.58 0.58 87 1004.2
20260904032052 79 141 1.0 5.0 0.00 0.58 0.58 87 1004.3
20260904031502 78 151 1.0 4.0 0.00 0.57 0.57 87 1004.4
20260904031056 79 127 1.0 3.0 0.00 0.58 0.58 87 1004.3
20260904030109 79 128 1.0 4.0 0.00 0.58 0.58 86 1004.3
20260904024503 79 158 3.0 6.0 0.00 0.57 0.57 86 1004.3
20260904023951 79 116 2.0 5.0 0.00 0.58 0.58 86 1004.2
20260904023102 78 103 2.0 6.0 0.00 0.57 0.57 86 1004.2
20260904021835 79 128 2.0 7.0 0.00 0.58 0.58 86 1004.0
20260904021505 79 97 3.0 8.0 0.00 0.57 0.57 86 1004.1
20260904015648 79 134 2.0 4.0 0.00 0.58 0.58 86 1003.8
20260904014657 79 110 1.0 3.0 0.00 0.58 0.58 86 1003.9
20260904014505 79 114 2.0 4.0 0.00 0.57 0.57 86 1004.0
20260904013716 80 113 1.0 2.0 0.00 0.58 0.58 85 1003.9
20260904013106 79 110 1.0 3.0 0.00 0.57 0.57 85 1003.9
20260904012711 80 112 1.0 2.0 0.00 0.58 0.58 85 1003.8
20260904011644 80 113 1.0 3.0 0.00 0.58 0.58 84 1003.7
20260904011503 80 113 2.0 4.0 0.00 0.57 0.57 84 1003.8
20260904010622 81 110 2.0 3.0 0.00 0.58 0.58 83 1003.5
20260904004520 82 124 3.0 7.0 0.00 0.58 0.58 80 1003.4
20260904004503 82 123 2.0 7.0 0.00 0.57 0.57 80 1003.5
20260904003525 83 114 3.0 7.0 0.00 0.58 0.58 79 1003.4
20260904003104 82 127 3.0 8.0 0.00 0.57 0.57 79 1003.5
20260904001504 83 104 3.0 7.0 0.00 0.57 0.57 78 1003.5
20260904001417 84 124 3.0 8.0 0.00 0.58 0.58 77 1003.4
20260904000340 84 137 3.0 8.0 0.00 0.58 0.58 77 1003.3
20260904000104 84 139 4.0 9.0 0.00 0.57 0.57 76 1003.4
20260903234505 85 112 3.0 7.0 0.00 0.57 0.57 74 1003.6
20260903234254 85 130 3.0 8.0 0.00 0.58 0.58 74 1003.5
20260903233253 86 120 4.0 12.0 0.00 0.58 0.58 72 1003.6
20260903233103 85 119 3.0 11.0 0.00 0.57 0.57 72 1003.7
20260903231503 86 76 4.0 10.0 0.00 0.57 0.57 71 1003.5
20260903231125 86 115 4.0 14.0 0.00 0.58 0.58 72 1003.3
20260903230126 86 146 6.0 14.0 0.00 0.58 0.58 72 1003.1
20260903230107 85 116 5.0 15.0 0.00 0.57 0.57 72 1003.0
20260903225104 86 115 5.0 14.0 0.00 0.58 0.58 71 1002.9
20260903224508 85 127 6.0 16.0 0.00 0.57 0.57 71 1002.9
20260903224118 86 134 6.0 14.0 0.00 0.58 0.58 70 1002.9
20260903223133 86 146 6.0 14.0 0.00 0.58 0.58 70 1002.7
20260903223103 86 127 6.0 15.0 0.00 0.57 0.57 71 1002.7
20260903222115 86 78 7.0 14.0 0.00 0.58 0.58 69 1002.8
20260903221503 86 100 6.0 14.0 0.00 0.57 0.57 68 1002.9
20260903221102 87 210 6.0 15.0 0.00 0.58 0.58 69 1002.9
20260903220121 86 164 6.0 12.0 0.00 0.57 0.57 69 1003.1
20260903214944 86 128 7.0 14.0 0.00 0.58 0.58 69 1003.1
20260903214602 86 150 6.0 15.0 0.00 0.57 0.57 69 1003.3
20260903213929 86 132 6.0 13.0 0.00 0.58 0.58 69 1003.4
20260903213002 86 179 9.0 14.0 0.00 0.57 0.57 70 1003.5
20260903212919 86 165 7.0 14.0 0.00 0.58 0.58 70 1003.4
20260903211903 86 146 7.0 14.0 0.00 0.58 0.58 70 1003.4
20260903211605 85 150 9.0 15.0 0.00 0.57 0.57 70 1003.5
20260903210849 85 129 6.0 15.0 0.00 0.58 0.58 71 1003.5
20260903210003 85 132 6.0 16.0 0.00 0.57 0.57 70 1003.4
20260903205834 86 120 8.0 15.0 0.00 0.58 0.58 68 1003.4
20260903204802 85 129 6.0 13.0 0.00 0.58 0.58 70 1003.4
20260903204603 85 139 7.0 14.0 0.00 0.57 0.57 70 1003.6
20260903203743 85 139 4.0 13.0 0.00 0.58 0.58 70 1003.8
20260903203004 84 153 4.0 10.0 0.00 0.57 0.57 72 1004.0
20260903202721 84 122 4.0 12.0 0.00 0.58 0.58 71 1003.9
20260903201738 85 109 5.0 12.0 0.00 0.58 0.58 70 1003.8
20260903201603 84 120 3.0 13.0 0.00 0.57 0.57 70 1003.9
20260903200735 85 197 5.0 10.0 0.00 0.58 0.58 69 1003.9
20260903200003 85 138 4.0 13.0 0.00 0.57 0.57 70 1004.1
20260903195700 85 115 6.0 17.0 0.00 0.58 0.58 70 1004.0
20260903194639 85 122 8.0 16.0 0.00 0.58 0.58 70 1004.1
20260903194603 85 162 10.0 17.0 0.00 0.57 0.57 70 1004.2
20260903193659 85 126 7.0 16.0 0.00 0.58 0.58 69 1004.5
20260903193002 85 77 6.0 15.0 0.00 0.57 0.57 69 1004.5
20260903192648 85 159 7.0 17.0 0.00 0.58 0.58 69 1004.5
20260903191602 85 218 6.0 13.0 0.00 0.57 0.57 70 1004.4
20260903190455 86 184 6.0 14.0 0.00 0.58 0.58 71 1004.1
20260903190002 85 204 7.0 15.0 0.00 0.57 0.57 71 1004.2
20260903185438 85 200 6.0 14.0 0.00 0.58 0.58 74 1004.2
20260903184603 83 145 7.0 15.0 0.01 0.57 0.57 77 1004.4
20260903184420 82 172 6.0 14.0 0.00 0.58 0.58 81 1004.3
20260903183430 77 193 6.0 15.0 0.00 0.58 0.58 96 1004.5
20260903183003 75 155 6.0 14.0 0.30 0.57 0.57 95 1004.6
20260903182356 75 200 7.0 15.0 0.00 0.58 0.58 95 1004.6
20260903181602 74 143 7.0 16.0 0.30 0.57 0.57 96 1004.5
20260903181352 74 122 7.0 19.0 0.00 0.58 0.58 96 1004.7
20260903180003 72 132 8.0 20.0 0.30 0.57 0.57 96 1004.9
20260903175238 73 167 9.0 18.0 0.14 0.58 0.58 95 1004.8
20260903174602 73 151 11.0 19.0 0.31 0.56 0.56 94 1004.4
20260903174244 74 174 7.0 17.0 2.57 0.44 0.51 94 1004.4
20260903173236 79 123 5.0 14.0 0.00 0.28 0.28 84 1004.3
20260903173004 78 136 7.0 11.0 0.04 0.28 0.28 85 1004.8
20260903172205 78 136 3.0 9.0 0.00 0.28 0.28 88 1004.8
20260903171623 76 139 5.0 8.0 0.10 0.28 0.28 90 1004.9
20260903171159 75 130 4.0 10.0 0.00 0.28 0.28 93 1004.9
20260903170141 73 272 3.0 10.0 0.05 0.28 0.28 96 1005.3
20260903170007 73 83 3.0 11.0 0.13 0.28 0.28 96 1005.4
20260903165155 73 163 1.0 8.0 0.18 0.28 0.28 96 1005.5
20260903164607 73 138 1.0 9.0 0.11 0.26 0.26 96 1005.5
20260903164123 73 127 4.0 8.0 0.00 0.24 0.24 96 1005.3
20260903163002 73 124 4.0 7.0 0.09 0.24 0.24 93 1005.5
20260903162000 77 125 3.0 8.0 0.66 0.21 0.23 83 1005.5
20260903161603 77 138 4.0 9.0 0.03 0.18 0.18 83 1005.4
20260903160003 78 143 6.0 10.0 0.00 0.15 0.15 81 1005.6
20260903155847 79 119 5.0 9.0 0.00 0.14 0.14 81 1005.5
20260903154855 77 149 3.0 7.0 0.00 0.14 0.14 84 1005.5
20260903154603 76 114 4.0 8.0 0.00 0.15 0.15 85 1005.6
20260903153825 77 91 2.0 7.0 0.00 0.14 0.14 83 1005.5
20260903153003 76 116 3.0 9.0 0.00 0.15 0.15 83 1005.5
20260903152754 77 115 5.0 9.0 0.00 0.14 0.14 82 1005.4
20260903151742 78 127 4.0 9.0 0.00 0.14 0.14 82 1005.2
20260903151603 77 126 4.0 10.0 0.00 0.15 0.15 82 1005.4
20260903150747 77 105 3.0 7.0 0.00 0.14 0.14 85 1005.5
20260903150002 75 119 3.0 6.0 0.00 0.15 0.15 87 1005.6
20260903145745 75 123 2.0 5.0 0.00 0.14 0.14 86 1005.5
20260903144750 75 110 2.0 4.0 0.00 0.14 0.14 87 1005.5
20260903144602 75 103 2.0 5.0 0.00 0.15 0.15 87 1005.5
20260903143724 75 106 2.0 4.0 0.00 0.14 0.14 88 1005.3
20260903143006 74 98 2.0 5.0 0.00 0.15 0.15 87 1005.5
20260903142720 74 98 1.0 5.0 0.00 0.14 0.14 87 1005.3
20260903141741 74 82 2.0 5.0 0.00 0.14 0.14 88 1005.2
20260903141603 74 97 3.0 6.0 0.00 0.15 0.15 87 1005.3
20260903140759 74 106 2.0 5.0 0.00 0.14 0.14 86 1005.4
20260903140010 73 98 2.0 6.0 0.00 0.15 0.15 88 1005.5
20260903135819 74 94 2.0 6.0 0.00 0.14 0.14 87 1005.5
20260903134816 73 118 3.0 7.0 0.00 0.14 0.14 87 1005.4
20260903134601 73 118 3.0 7.0 0.00 0.15 0.15 87 1005.4
20260903133003 73 119 5.0 8.0 0.00 0.15 0.15 86 1005.5
20260903132700 74 131 2.0 5.0 0.00 0.14 0.14 87 1005.4
20260903131637 73 125 3.0 8.0 0.00 0.14 0.14 87 1005.3
20260903131611 72 121 2.0 9.0 0.00 0.15 0.15 87 1005.4
20260903130633 72 123 3.0 8.0 0.00 0.14 0.14 88 1005.3
20260903130003 71 132 4.0 9.0 0.00 0.15 0.15 88 1005.3
20260903125620 72 134 3.0 8.0 0.00 0.14 0.14 88 1005.3